DW8067 Weather Reports


time (UTC)temp
C
wind
direction
speed
KPH
gust
KPH
rain 1hr
cm
rain 24hr
cm
rain mn
cm
humidity
%
barometer
mb
20260507150059 19 101 0.0 3.2 0.15 7.16 6.99 99 1010.2
20260507144603 19 110 0.0 3.2 0.15 7.14 6.96 99 1010.1
20260507143109 19 122 0.0 6.4 0.36 7.09 6.91 99 1010.2
20260507141618 20 146 0.0 4.8 0.76 7.04 6.86 99 1009.8
20260507140056 20 236 0.0 3.2 1.65 7.01 6.83 100 1009.2
20260507134556 20 250 0.0 6.4 2.11 6.99 6.81 99 1009.5
20260507133103 20 248 3.2 20.9 2.46 6.68 6.50 99 1009.6
20260507131610 19 244 8.0 19.3 3.00 6.25 6.07 99 1009.2
20260507130053 19 227 3.2 8.0 2.54 5.36 5.18 99 1009.0
20260507124553 19 248 3.2 8.0 3.10 4.80 4.62 99 1009.0
20260507123109 19 239 3.2 8.0 2.84 4.19 4.01 99 1009.1
20260507121551 20 282 0.0 9.7 1.93 3.25 3.07 98 1009.7
20260507120050 20 269 9.7 17.7 1.42 2.77 2.59 98 1009.0
20260507114553 19 237 6.4 24.1 0.33 1.65 1.45 98 1009.0
20260507113047 19 245 1.6 11.3 0.00 1.32 1.14 98 1008.2
20260507111547 19 250 8.0 17.7 0.00 1.32 1.14 98 1008.3
20260507110050 19 252 4.8 17.7 0.03 1.32 1.14 98 1008.8
20260507104646 19 260 6.4 16.1 0.10 1.32 1.14 98 1008.6
20260507103044 19 115 1.6 8.0 0.28 1.32 1.14 98 1008.2
20260507101543 19 258 3.2 16.1 0.36 1.32 1.14 98 1008.3
20260507100053 19 195 4.8 17.7 0.36 1.30 1.12 98 1006.6
20260507094539 19 244 4.8 12.9 0.25 1.19 1.02 98 1009.0
20260507093037 19 245 4.8 14.5 0.08 1.02 0.84 98 1010.8
20260507091540 19 285 6.4 11.3 0.03 0.97 0.79 98 1009.8
20260507090040 19 207 1.6 9.7 0.00 0.94 0.76 98 1009.9
20260507084543 19 211 3.2 8.0 0.00 0.94 0.76 98 1010.0
20260507083035 19 204 4.8 8.0 0.00 0.94 0.76 98 1010.0
20260507081534 19 248 1.6 6.4 0.03 0.94 0.76 98 1009.8
20260507080033 19 288 0.0 11.3 0.13 0.94 0.76 97 1009.9
20260507074534 19 237 3.2 12.9 0.13 0.94 0.76 97 1009.9
20260507073032 19 229 0.0 8.0 0.18 0.94 0.76 97 1009.6
20260507071534 19 252 3.2 11.3 0.20 0.91 0.71 97 1009.1
20260507070032 19 241 8.0 17.7 0.18 0.81 0.64 97 1010.1
20260507064539 19 158 3.2 8.0 0.33 0.81 0.64 96 1009.3
20260507063024 20 250 3.2 14.5 0.43 0.76 0.58 96 1010.2
20260507061522 20 264 8.0 22.5 0.43 0.69 0.51 96 1010.5
20260507060019 20 277 4.8 16.1 0.43 0.64 0.46 95 1010.3
20260507054516 20 240 8.0 19.3 0.28 0.48 0.30 94 1011.2
20260507053013 20 228 6.4 19.3 0.15 0.33 0.15 94 1011.6
20260507051510 20 268 11.3 19.3 0.08 0.25 0.08 93 1011.7
20260507050019 21 247 8.0 16.1 0.03 0.20 0.03 93 1011.8
20260507044506 20 211 1.6 11.3 0.03 0.20 0.03 93 1011.1
20260507043004 21 252 0.0 16.1 0.05 0.18 0.00 93 1011.7
20260507041501 21 224 4.8 14.5 0.08 0.18 0.00 93 1010.9
20260507040059 21 271 1.6 8.0 0.13 0.18 0.00 93 1010.5
20260507034557 21 293 0.0 4.8 0.15 0.18 0.18 92 1011.3
20260507033056 21 224 4.8 17.7 0.10 0.13 0.13 90 1011.2
20260507031555 22 247 8.0 22.5 0.10 0.10 0.10 88 1011.5
20260507030055 22 251 8.0 17.7 0.03 0.03 0.03 87 1011.7
20260507024553 22 151 0.0 0.0 0.03 0.03 0.03 87 1011.8
20260507023052 23 144 0.0 11.3 0.03 0.03 0.03 83 1011.2
20260507021552 23 172 0.0 3.2 0.00 0.00 0.00 81 1011.3
20260507014558 25 258 3.2 9.7 0.00 0.00 0.00 77 1011.0
20260507013050 25 252 3.2 8.0 0.00 0.00 0.00 79 1011.5
20260507011550 25 269 3.2 9.7 0.00 0.00 0.00 76 1011.0
20260507010059 25 266 3.2 8.0 0.00 0.00 0.00 77 1011.4
20260507004548 25 249 3.2 11.3 0.00 0.00 0.00 76 1011.2
20260507003048 25 228 1.6 8.0 0.00 0.00 0.00 75 1011.4
20260507001554 25 262 6.4 12.9 0.00 0.00 0.00 74 1011.4
20260507000046 26 236 4.8 14.5 0.00 0.00 0.00 74 1010.7
20260506234544 26 195 8.0 16.1 0.00 0.00 0.00 75 1010.8
20260506233044 26 245 1.6 11.3 0.00 0.00 0.00 72 1010.3
20260506231602 26 236 1.6 11.3 0.00 0.00 0.00 71 1010.2
20260506230100 26 240 9.7 19.3 0.00 0.00 0.00 70 1011.1
20260506224541 26 280 6.4 16.1 0.00 0.00 0.00 71 1011.2
20260506223039 27 240 4.8 16.1 0.00 0.00 0.00 70 1010.9
20260506221541 27 226 8.0 19.3 0.00 0.00 0.00 70 1010.5
20260506220040 26 245 9.7 17.7 0.00 0.00 0.00 71 1010.9
20260506214537 27 251 9.7 19.3 0.00 0.00 0.00 68 1010.8
20260506213035 27 269 11.3 24.1 0.00 0.00 0.00 68 1010.8
20260506211535 27 233 11.3 20.9 0.00 0.00 0.00 68 1010.8
20260506210032 27 171 6.4 17.7 0.00 0.00 0.00 66 1011.0
20260506204528 27 250 8.0 17.7 0.00 0.00 0.00 65 1011.6
20260506203022 27 229 6.4 17.7 0.00 0.00 0.00 68 1011.7
20260506201528 27 245 11.3 20.9 0.00 0.00 0.00 67 1011.8
20260506200016 27 264 8.0 20.9 0.00 0.00 0.00 66 1012.2
20260506194514 27 271 6.4 19.3 0.00 0.00 0.00 65 1012.4
20260506193013 26 269 12.9 20.9 0.00 0.00 0.00 63 1012.7
20260506191513 27 224 8.0 22.5 0.00 0.00 0.00 64 1013.0
20260506190015 27 226 3.2 12.9 0.00 0.00 0.00 64 1013.2
20260506184518 27 236 3.2 19.3 0.00 0.00 0.00 63 1013.3
20260506183006 27 245 6.4 19.3 0.00 0.00 0.00 62 1013.4
20260506181505 26 50 11.3 24.1 0.00 0.00 0.00 61 1013.3
20260506180005 26 246 9.7 20.9 0.00 0.00 0.00 60 1013.2
20260506174505 26 258 3.2 19.3 0.00 0.00 0.00 61 1013.2
20260506173100 25 257 9.7 20.9 0.00 0.00 0.00 61 1013.4
20260506171607 25 243 8.0 17.7 0.00 0.00 0.00 65 1013.9
20260506170058 25 219 8.0 20.9 0.00 0.00 0.00 63 1014.2
20260506164553 25 226 6.4 20.9 0.00 0.00 0.00 66 1014.3
20260506163050 24 261 3.2 20.9 0.00 0.00 0.00 68 1014.6
20260506161549 23 260 9.7 16.1 0.00 0.00 0.00 69 1014.9
20260506160059 23 265 8.0 17.7 0.00 0.00 0.00 69 1015.1
20260506154546 23 249 9.7 19.3 0.00 0.00 0.00 70 1015.3
20260506153043 23 206 4.8 12.9 0.00 0.00 0.00 75 1015.1